This is the latest recevied weather packets stored in our database for station/object EA7HQL-10. If no packets are shown the sender has not sent any weather packets the latest 10 day(s).
| Time | Temp. | Humidity | Pressure | Rain* | Wind** | Luminosity | Snow |
|---|---|---|---|---|---|---|---|
| 1777913305 | 22.78° C | 44% | 1010.1 hPa | 0 mm | - | - | - |
| 1777913045 | 23.33° C | 43% | 1010 hPa | 0 mm | - | - | - |
| 1777912760 | 22.78° C | 44% | 1010 hPa | 0 mm | - | - | - |
| 1777912485 | 22.78° C | 44% | 1010.2 hPa | 0 mm | - | - | - |
| 1777912225 | 23.33° C | 45% | 1010.1 hPa | 0 mm | - | - | - |
| 1777911945 | 23.33° C | 45% | 1010.2 hPa | 0 mm | - | - | - |
| 1777911645 | 23.33° C | 45% | 1010.2 hPa | 0 mm | - | - | - |
| 1777911365 | 23.33° C | 46% | 1010.3 hPa | 0 mm | - | - | - |
| 1777911109 | 23.33° C | 46% | 1010.2 hPa | 0 mm | - | - | - |
| 1777910849 | 23.33° C | 47% | 1010.2 hPa | 0 mm | - | - | - |
| 1777910560 | 22.78° C | 46% | 1010.3 hPa | 0 mm | - | - | - |
| 1777910269 | 23.33° C | 46% | 1010.2 hPa | 0 mm | - | - | - |
| 1777910005 | 23.33° C | 45% | 1010.2 hPa | 0 mm | - | - | - |
| 1777909760 | 23.33° C | 46% | 1010.2 hPa | 0 mm | - | - | - |
| 1777909512 | 23.33° C | 48% | 1010.3 hPa | 0 mm | - | - | - |
| 1777909240 | 22.78° C | 48% | 1010.1 hPa | 0 mm | - | - | - |
| 1777908945 | 23.33° C | 51% | 1010.2 hPa | 0 mm | - | - | - |
| 1777908702 | 22.78° C | 50% | 1010.3 hPa | 0 mm | - | - | - |
| 1777908410 | 22.78° C | 51% | 1010.4 hPa | 0 mm | - | - | - |
| 1777908135 | 22.78° C | 52% | 1010.3 hPa | 0 mm | - | - | - |
| 1777907880 | 22.78° C | 52% | 1010.4 hPa | 0 mm | - | - | - |
| 1777907580 | 22.78° C | 52% | 1010.3 hPa | 0 mm | - | - | - |
| 1777907290 | 22.78° C | 52% | 1010.4 hPa | 0 mm | - | - | - |
| 1777906990 | 22.78° C | 50% | 1010.4 hPa | 0 mm | - | - | - |
| 1777906700 | 23.33° C | 50% | 1010.6 hPa | 0 mm | - | - | - |
* Rain latest hour (hover to see other rain measurements)
** Current wind speed in m/s (hover to see current wind gust speed)